Left ArrowRight Arrow

31.31129, -92.44514

Hourly Observations for March 1, 2021

Temp ( °F °C ) Dew Point ( °F °C ) Humidity (%) Winds ( mph kmh ) Pressure ( in mb ) Visibility ( mi km ) Precip ( " mm )
12:53 am 00:53 Mostly Cloudy 70 21.1 67 19.4 90 90 S 7 11 29.94 1014 8 13 0.00 0.00
1:34 am 01:34 Mostly Cloudy 70 21.1 67 19.4 90 90 SW 12 19 29.93 1013 7 11 0.00 0.00
1:49 am 01:49 Cloudy 70 21 66 19 88 88 SSW 8 13 29.93 1013 7 11 0.00 0.00
1:53 am 01:53 Cloudy 70 21.1 67 19.4 90 90 SSW 9 15 29.93 1014 7 11 0.00 0.00
2:51 am 02:51 Cloudy with Mist and Fog 70 21 66 19 88 88 SSW 8 13 29.92 1013 6 10 0.00 0.00
2:53 am 02:53 Cloudy with Mist and Fog 70 21.1 66 18.9 87 87 SSW 6 9 29.92 1013 6 10 0.00 0.00
3:22 am 03:22 Cloudy with Mist and Fog 70 21.1 66 18.9 87 87 SSW 5 7 29.91 1013 6 10 0.00 0.00
3:53 am 03:53 Cloudy with Mist and Fog 70 21.1 66 18.9 87 87 WSW 3 6 29.93 1014 6 10 0.00 0.00
4:53 am 04:53 Cloudy with Mist and Fog 69 20.6 66 18.9 90 90 S 5 7 29.94 1014 6 10 0.00 0.00
5:12 am 05:12 Cloudy with Mist and Fog 69 20.6 66 18.9 90 90 SSE 3 6 29.94 1014 5 8 0.00 0.00
5:53 am 05:53 Cloudy with Mist and Fog 68 20 66 18.9 93 93 Calm 29.95 1014 5 8 0.00 0.00
6:26 am 06:26 Cloudy with Mist and Fog 68 20 66 18.9 93 93 NE 3 6 29.96 1014 4 6 0.00 0.00
6:34 am 06:34 Cloudy with Mist and Fog 68 20 66 18.9 93 93 NE 5 7 29.96 1014 4 6 0.00 0.00
6:53 am 06:53 Cloudy 65 18.3 62 16.7 90 90 NNE 17 28 29.98 1015 7 11 0.00 0.00
7:53 am 07:53 Cloudy with Light Rain 62 16.7 58 14.4 86 86 NE 15 24 30.03 1017 8 13 0.03 0.76
8:00 am 08:00 Cloudy with Light Rain 62 16.7 58 14.4 86 86 NE 12 19 30.02 1017 10 16 0.00 0.00
8:53 am 08:53 Cloudy 62 16.7 57 13.9 84 84 NE 17 28 30.06 1018 10 16 0.00 0.00
9:35 am 09:35 Cloudy with Light Rain 62 16.7 57 13.9 84 84 NE 10 17 30.07 1018 7 11 0.01 0.25
9:53 am 09:53 Cloudy 62 16.7 57 13.9 84 84 NNE 15 24 30.10 1019 10 16 0.01 0.25
10:11 am 10:11 Cloudy with Heavy Rain 61 16.1 57 13.9 87 87 NE 17 28 30.10 1019 2 3 0.04 1.02
10:39 am 10:39 Cloudy with Rain 59 15 55 12.8 87 87 NNE 13 20 30.11 1020 2 3 0.09 2.29
10:53 am 10:53 Cloudy with Light Rain 58 14.4 55 12.8 90 90 NNE 14 22 30.13 1020 2 3 0.09 2.29
10:55 am 10:55 Cloudy with Light Rain 58 14.4 54 12.2 87 87 NNE 14 22 30.12 1020 8 13 0.00 0.00
11:02 am 11:02 Cloudy with Light Rain 58 14.4 54 12.2 87 87 NNE 16 26 30.12 1020 10 16 0.00 0.00
11:24 am 11:24 Cloudy with Light Rain 57 13.9 53 11.7 87 87 N 13 20 30.13 1020 8 13 0.00 0.00
11:53 am 11:53 Cloudy with Light Rain 56 13.3 53 11.7 90 90 N 14 22 30.15 1021 8 13 0.00 0.00
12:21 pm 12:21 Cloudy with Rain 55 12.8 53 11.7 93 93 N 13 20 30.14 1021 2 3 0.04 1.02
12:23 pm 12:23 Cloudy with Rain 55 12.8 52 11.1 90 90 N 13 20 30.14 1021 2 3 0.04 1.02
12:42 pm 12:42 Cloudy with Light Rain 54 12.2 51 10.6 90 90 N 16 26 30.15 1021 2 3 0.07 1.78
12:53 pm 12:53 Cloudy with Light Rain 54 12.2 51 10.6 90 90 NNE 13 20 30.15 1021 3 5 0.07 1.78
1:01 pm 13:01 Cloudy with Light Rain 54 12.2 51 10.6 90 90 N 12 19 30.14 1021 2 3 0.01 0.25
1:53 pm 13:53 Cloudy with Light Rain 54 12.2 51 10.6 90 90 NNE 14 22 30.16 1021 2 3 0.05 1.27
2:00 pm 14:00 Cloudy with Light Rain 54 12.2 51 10.6 90 90 NNE 15 24 30.15 1021 3 5 0.00 0.00
2:36 pm 14:36 Cloudy with Light Rain 54 12.2 50 10 87 87 NNE 13 20 30.16 1021 10 16 0.00 0.00
2:43 pm 14:43 Cloudy with Light Rain 54 12.2 50 10 87 87 N 13 20 30.16 1021 10 16 0.00 0.00
2:53 pm 14:53 Cloudy with Light Rain 54 12.2 50 10 87 87 N 12 19 30.17 1022 10 16 0.00 0.00
3:53 pm 15:53 Cloudy 54 12.2 48 8.9 80 80 NNE 7 11 30.16 1021 10 16 0.00 0.00
4:53 pm 16:53 Cloudy with Light Rain 53 11.7 48 8.9 83 83 NE 8 13 30.16 1021 8 13 0.00 0.00
5:53 pm 17:53 Cloudy 53 11.7 48 8.9 83 83 ENE 10 17 30.15 1021 10 16 0.00 0.00
6:53 pm 18:53 Cloudy with Light Rain 53 11.7 48 8.9 83 83 ENE 7 11 30.17 1022 10 16 0.00 0.00
7:53 pm 19:53 Cloudy with Light Rain 52 11.1 48 8.9 86 86 N 8 13 30.19 1023 10 16 0.01 0.25
7:59 pm 19:59 Cloudy with Light Rain 51 10.6 48 8.9 89 89 N 8 13 30.18 1022 10 16 0.00 0.00
8:53 pm 20:53 Cloudy with Light Rain 50 10 46 7.8 86 86 NNE 13 20 30.20 1023 10 16 0.00 0.00
9:00 pm 21:00 Cloudy with Light Rain 50 10 46 7.8 86 86 NNE 14 22 30.19 1022 8 13 0.01 0.25
9:12 pm 21:12 Cloudy with Light Rain 50 10 46 7.8 86 86 NNE 10 17 30.19 1022 6 10 0.02 0.51
9:53 pm 21:53 Cloudy with Light Rain 49 9.4 46 7.8 90 90 N 10 17 30.22 1023 5 8 0.05 1.27
10:07 pm 22:07 Cloudy with Light Rain 49 9.4 46 7.8 90 90 NE 12 19 30.19 1022 9 14 0.00 0.00
10:22 pm 22:22 Cloudy with Rain 48 8.9 45 7.2 89 89 NNE 12 19 30.19 1022 7 11 0.02 0.51
10:53 pm 22:53 Cloudy with Light Rain 48 8.9 45 7.2 89 89 N 10 17 30.22 1023 7 11 0.05 1.27
11:04 pm 23:04 Cloudy with Light Rain 48 8.9 45 7.2 89 89 N 7 11 30.20 1023 10 16 0.00 0.00
11:23 pm 23:23 Cloudy with Light Rain 48 8.9 44 6.7 86 86 N 10 17 30.20 1023 7 11 0.01 0.25
11:53 pm 23:53 Cloudy with Light Rain 47 8.3 44 6.7 90 90 NNE 8 13 30.20 1023 7 11 0.01 0.25

Powered by Vaisala Xweather